GW4987 Weather Reports


time (UTC)temp
F
wind
direction
speed
knots
gust
knots
rain 1hr
in
rain 24hr
in
rain mn
in
humidity
%
barometer
mb
20260904042503 71 126 8.7 8.7 0.00 0.00 0.00 54 1019.7
20260904042004 72 183 4.3 8.7 0.00 0.00 0.00 53 1019.7
20260904041504 72 209 8.7 8.7 0.00 0.00 0.00 53 1019.7
20260904041004 72 180 2.6 11.3 0.00 0.00 0.00 53 1019.5
20260904040504 72 177 6.1 9.6 0.00 0.00 0.00 52 1019.5
20260904040004 72 285 4.3 9.6 0.00 0.00 0.00 51 1019.5
20260904035503 72 220 5.2 11.3 0.00 0.00 0.00 51 1019.6
20260904033503 72 189 4.3 10.4 0.00 0.00 0.00 49 1019.3
20260904033004 72 204 8.7 12.2 0.00 0.00 0.00 49 1019.6
20260904032504 72 191 8.7 15.6 0.00 0.00 0.00 49 1019.6
20260904032003 72 211 13.0 14.8 0.00 0.00 0.00 48 1019.3
20260904031503 72 180 11.3 15.6 0.00 0.00 0.00 49 1019.4
20260904031004 72 226 8.7 13.9 0.00 0.00 0.00 49 1019.3
20260904030503 72 191 7.8 10.4 0.00 0.00 0.00 49 1019.3
20260904030004 72 185 7.0 9.6 0.00 0.00 0.00 49 1019.5
20260904025504 72 218 7.8 13.0 0.00 0.00 0.00 49 1019.5
20260904025004 72 199 7.0 7.8 0.00 0.00 0.00 50 1019.3
20260904024504 72 199 5.2 11.3 0.00 0.00 0.00 50 1019.2
20260904024004 72 197 7.8 13.0 0.00 0.00 0.00 50 1019.3
20260904023504 72 218 7.0 12.2 0.00 0.00 0.00 50 1019.3
20260904023004 72 218 5.2 9.6 0.00 0.00 0.00 51 1019.0
20260904022504 72 217 9.6 9.6 0.00 0.00 0.00 51 1019.3
20260904022003 72 188 4.3 7.8 0.00 0.00 0.00 51 1019.2
20260904021503 72 184 7.0 8.7 0.00 0.00 0.00 51 1019.0
20260904021004 73 175 3.5 10.4 0.00 0.00 0.00 50 1019.2
20260904015004 74 198 4.3 10.4 0.00 0.00 0.00 48 1019.0
20260904014504 74 206 13.9 14.8 0.00 0.00 0.00 47 1019.0
20260904014004 74 213 10.4 18.2 0.00 0.00 0.00 46 1019.0
20260904012004 76 206 7.8 9.6 0.00 0.00 0.00 45 1019.0
20260904011504 76 163 4.3 14.8 0.00 0.00 0.00 45 1018.8
20260904011004 76 182 3.5 16.5 0.00 0.00 0.00 45 1018.9
20260904010504 76 198 7.8 15.6 0.00 0.00 0.00 45 1019.2
20260904010004 76 200 17.4 21.7 0.00 0.00 0.00 44 1019.0
20260904005504 76 209 14.8 19.1 0.00 0.00 0.00 43 1019.0
20260904005003 76 180 11.3 21.7 0.00 0.00 0.00 44 1019.2
20260904004503 78 203 7.0 17.4 0.00 0.00 0.00 42 1019.0
20260904004003 77 167 5.2 12.2 0.00 0.00 0.00 45 1019.3
20260904003504 77 181 10.4 13.0 0.00 0.00 0.00 45 1019.2
20260904003004 77 185 8.7 22.6 0.00 0.00 0.00 45 1019.4
20260904002504 78 228 13.9 13.9 0.00 0.00 0.00 44 1019.2
20260904002004 77 218 9.6 22.6 0.00 0.00 0.00 45 1019.4
20260904001504 78 190 7.0 12.2 0.00 0.00 0.00 43 1019.3
20260904001004 78 205 2.6 13.9 0.00 0.00 0.00 43 1019.3
20260903235004 78 162 4.3 16.5 0.00 0.00 0.00 43 1019.2
20260903234504 78 216 7.0 10.4 0.00 0.00 0.00 44 1019.4
20260903234004 78 183 13.0 13.9 0.00 0.00 0.00 43 1019.3
20260903233503 78 186 10.4 19.1 0.00 0.00 0.00 44 1019.0
20260903233003 78 154 8.7 12.2 0.00 0.00 0.00 44 1019.3
20260903232503 78 165 6.1 16.5 0.00 0.00 0.00 44 1019.2
20260903232004 78 173 8.7 18.2 0.00 0.00 0.00 43 1019.3
20260903231504 79 155 7.0 16.5 0.00 0.00 0.00 42 1019.4
20260903231004 80 212 8.7 9.6 0.00 0.00 0.00 40 1019.4
20260903230504 79 136 8.7 15.6 0.00 0.00 0.00 41 1019.4
20260903230004 78 179 7.8 14.8 0.00 0.00 0.00 43 1019.6
20260903225504 77 180 9.6 13.9 0.00 0.00 0.00 44 1019.7
20260903225003 77 220 8.7 14.8 0.00 0.00 0.00 43 1019.6
20260903224503 76 214 7.0 8.7 0.00 0.00 0.00 44 1019.7
20260903224004 76 207 7.0 20.9 0.00 0.00 0.00 44 1019.7
20260903223503 77 238 7.8 10.4 0.00 0.00 0.00 44 1019.8
20260903223004 76 191 9.6 18.2 0.00 0.00 0.00 45 1019.9
20260903222503 76 177 5.2 16.5 0.00 0.00 0.00 45 1019.8
20260903222003 78 203 12.2 16.5 0.00 0.00 0.00 44 1019.8
20260903221504 77 194 6.1 16.5 0.00 0.00 0.00 45 1019.9
20260903221003 76 211 7.0 13.9 0.00 0.00 0.00 45 1020.0
20260903220503 78 167 5.2 16.5 0.00 0.00 0.00 43 1020.1
20260903220004 77 185 7.0 12.2 0.00 0.00 0.00 45 1020.1
20260903215504 77 184 6.1 13.9 0.00 0.00 0.00 45 1020.1
20260903215004 77 119 7.8 9.6 0.00 0.00 0.00 46 1020.2
20260903214504 80 136 16.5 20.0 0.00 0.00 0.00 43 1020.2
20260903212503 76 213 7.8 11.3 0.00 0.00 0.00 47 1020.3
20260903212003 78 168 7.0 17.4 0.00 0.00 0.00 43 1020.3
20260903211503 78 131 17.4 19.1 0.00 0.00 0.00 42 1020.4
20260903211003 76 155 8.7 12.2 0.00 0.00 0.00 45 1020.5
20260903210503 78 218 5.2 10.4 0.00 0.00 0.00 44 1020.2
20260903210004 77 225 9.6 17.4 0.00 0.00 0.00 45 1020.4
20260903205503 76 189 9.6 16.5 0.00 0.00 0.00 46 1020.5
20260903205003 76 209 15.6 25.2 0.00 0.00 0.00 44 1020.4
20260903204504 77 204 7.8 19.1 0.00 0.00 0.00 42 1020.4
20260903204004 77 248 11.3 20.0 0.00 0.00 0.00 41 1020.6
20260903203504 77 180 7.8 17.4 0.00 0.00 0.00 43 1020.4
20260903203004 76 186 8.7 21.7 0.00 0.00 0.00 44 1020.6
20260903202503 78 221 21.7 22.6 0.00 0.00 0.00 42 1020.5
20260903202003 78 185 11.3 19.1 0.00 0.00 0.00 41 1020.6
20260903201503 76 154 2.6 16.5 0.00 0.00 0.00 46 1020.6
20260903201003 76 210 6.1 19.1 0.00 0.00 0.00 45 1020.6
20260903200503 76 180 8.7 12.2 0.00 0.00 0.00 45 1020.5
20260903200003 78 228 1.7 8.7 0.00 0.00 0.00 44 1020.5
20260903195503 76 191 7.8 16.5 0.00 0.00 0.00 47 1020.7
20260903195004 76 180 9.6 18.2 0.00 0.00 0.00 46 1020.8
20260903194504 76 149 8.7 13.0 0.00 0.00 0.00 46 1020.7
20260903194003 77 162 6.1 13.0 0.00 0.00 0.00 45 1020.9
20260903193504 77 212 6.1 11.3 0.00 0.00 0.00 45 1020.9
20260903193004 75 234 9.6 16.5 0.00 0.00 0.00 47 1020.8
20260903192504 76 243 12.2 15.6 0.00 0.00 0.00 45 1020.8
20260903192004 78 193 7.0 17.4 0.00 0.00 0.00 43 1020.9
20260903190003 78 105 4.3 13.0 0.00 0.00 0.00 44 1021.1
20260903185503 76 145 7.0 14.8 0.00 0.00 0.00 44 1021.3
20260903185004 77 165 5.2 13.0 0.00 0.00 0.00 44 1021.4
20260903184504 77 146 5.2 7.8 0.00 0.00 0.00 44 1021.4
20260903184004 76 182 13.9 16.5 0.00 0.00 0.00 44 1021.6
20260903183504 76 231 14.8 20.9 0.00 0.00 0.00 44 1021.4
20260903181504 77 233 4.3 18.2 0.00 0.00 0.00 42 1021.7
20260903181004 76 200 10.4 19.1 0.00 0.00 0.00 42 1021.6
20260903180504 76 136 14.8 20.9 0.00 0.00 0.00 42 1021.7
20260903180003 77 117 7.8 12.2 0.00 0.00 0.00 41 1021.5
20260903175504 76 145 8.7 11.3 0.00 0.00 0.00 41 1021.8
20260903175003 76 126 2.6 17.4 0.00 0.00 0.00 42 1022.0
20260903174503 77 143 7.0 15.6 0.00 0.00 0.00 41 1021.8
20260903174004 75 171 6.1 11.3 0.00 0.00 0.00 42 1021.8
20260903173504 74 193 7.0 20.0 0.00 0.00 0.00 43 1021.9
20260903173004 74 205 10.4 18.2 0.00 0.00 0.00 43 1021.8
20260903172504 75 154 9.6 16.5 0.00 0.00 0.00 42 1021.8
20260903172004 74 153 7.0 17.4 0.00 0.00 0.00 44 1021.7
20260903171504 74 156 7.8 13.0 0.00 0.00 0.00 44 1021.8
20260903171004 74 207 13.0 20.9 0.00 0.00 0.00 44 1021.9
20260903170504 75 169 9.6 15.6 0.00 0.00 0.00 43 1021.8
20260903170004 76 199 10.4 11.3 0.00 0.00 0.00 42 1021.7
20260903165503 75 151 6.1 10.4 0.00 0.00 0.00 43 1021.7
20260903165003 74 191 5.2 13.9 0.00 0.00 0.00 44 1021.8
20260903164503 73 197 12.2 16.5 0.00 0.00 0.00 45 1021.9
20260903164004 73 185 13.9 20.0 0.00 0.00 0.00 45 1021.8
20260903163504 74 181 8.7 17.4 0.00 0.00 0.00 44 1021.6
20260903163004 73 207 5.2 14.8 0.00 0.00 0.00 45 1021.6
20260903162504 74 144 8.7 14.8 0.00 0.00 0.00 43 1021.7
20260903162004 74 139 5.2 8.7 0.00 0.00 0.00 44 1021.7
20260903161504 73 196 8.7 9.6 0.00 0.00 0.00 44 1021.7
20260903161003 73 228 8.7 12.2 0.00 0.00 0.00 44 1021.7
20260903160503 72 213 11.3 14.8 0.00 0.00 0.00 45 1021.6
20260903160005 73 190 7.0 10.4 0.00 0.00 0.00 44 1021.7
20260903154504 73 111 7.0 8.7 0.00 0.00 0.00 43 1021.8
20260903154004 72 139 7.8 13.9 0.00 0.00 0.00 44 1021.6
20260903153504 73 177 2.6 5.2 0.00 0.00 0.00 44 1021.6
20260903153004 72 124 2.6 2.6 0.00 0.00 0.00 45 1021.7
20260903152503 72 194 12.2 13.0 0.00 0.00 0.00 44 1021.8
20260903152004 71 127 7.0 7.8 0.00 0.00 0.00 45 1021.6
20260903151503 71 169 2.6 3.5 0.00 0.00 0.00 46 1021.5
20260903151003 71 169 2.6 3.5 0.00 0.00 0.00 46 1021.6
20260903150504 71 226 7.0 13.9 0.00 0.00 0.00 45 1021.6
20260903150004 71 179 6.1 13.0 0.00 0.00 0.00 46 1021.7
20260903145504 70 182 6.1 6.1 0.00 0.00 0.00 47 1021.6
20260903145004 71 163 4.3 4.3 0.00 0.00 0.00 46 1021.6
20260903144504 70 162 2.6 4.3 0.00 0.00 0.00 47 1021.7
20260903144004 69 172 8.7 14.8 0.00 0.00 0.00 48 1021.6
20260903143504 69 172 8.7 14.8 0.00 0.00 0.00 48 1021.6
20260903143004 69 172 8.7 14.8 0.00 0.00 0.00 48 1021.6
20260903142503 68 164 7.8 14.8 0.00 0.00 0.00 48 1021.5
20260903142004 66 196 4.3 6.1 0.00 0.00 0.00 53 1021.6
20260903141503 66 196 4.3 6.1 0.00 0.00 0.00 53 1021.6
20260903141003 66 196 4.3 6.1 0.00 0.00 0.00 53 1021.6
20260903140503 66 196 4.3 6.1 0.00 0.00 0.00 53 1021.5
20260903140003 66 196 4.3 6.1 0.00 0.00 0.00 53 1021.4
20260903135503 66 196 4.3 6.1 0.00 0.00 0.00 53 1021.4
20260903135004 66 196 4.3 6.1 0.00 0.00 0.00 53 1021.5
20260903133004 64 180 3.5 4.3 0.00 0.00 0.00 51 1021.1
20260903132504 64 180 3.5 4.3 0.00 0.00 0.00 51 1021.3
20260903132004 64 180 3.5 4.3 0.00 0.00 0.00 51 1021.1
20260903131504 64 180 3.5 4.3 0.00 0.00 0.00 51 1020.9
20260903131004 64 180 3.5 4.3 0.00 0.00 0.00 51 1020.8
20260903130504 64 180 3.5 4.3 0.00 0.00 0.00 51 1020.9
20260903130003 64 180 3.5 4.3 0.00 0.00 0.00 51 1020.9
20260903125503 64 186 1.7 2.6 0.00 0.00 0.00 46 1020.8
20260903125004 64 186 1.7 2.6 0.00 0.00 0.00 46 1020.7
20260903124503 64 186 1.7 2.6 0.00 0.00 0.00 46 1020.9
20260903124003 64 186 1.7 2.6 0.00 0.00 0.00 46 1020.8
20260903123504 64 186 1.7 2.6 0.00 0.00 0.00 46 1020.8
20260903123004 64 186 1.7 2.6 0.00 0.00 0.00 46 1020.9
20260903122504 64 186 1.7 2.6 0.00 0.00 0.00 46 1020.8
20260903122004 64 186 1.7 2.6 0.00 0.00 0.00 46 1020.9
20260903121504 64 148 1.7 2.6 0.00 0.00 0.00 45 1020.8
20260903121004 65 129 4.3 4.3 0.00 0.00 0.00 44 1020.8
20260903120504 65 206 3.5 3.5 0.00 0.00 0.00 46 1020.9
20260903120004 65 206 3.5 3.5 0.00 0.00 0.00 46 1020.8
20260903115503 65 206 3.5 3.5 0.00 0.00 0.00 46 1020.5
20260903113504 65 206 3.5 3.5 0.00 0.00 0.00 46 1020.9
20260903113004 65 206 3.5 3.5 0.00 0.00 0.00 46 1020.8
20260903111004 63 121 2.6 2.6 0.00 0.00 0.00 44 1020.7
20260903110504 63 121 2.6 2.6 0.00 0.00 0.00 44 1020.8
20260903110003 63 121 2.6 2.6 0.00 0.00 0.00 44 1020.7
20260903105504 63 121 2.6 2.6 0.00 0.00 0.00 44 1021.0
20260903105004 63 121 2.6 2.6 0.00 0.00 0.00 44 1020.9
20260903104504 63 121 2.6 2.6 0.00 0.00 0.00 44 1021.0
20260903104004 63 121 2.6 2.6 0.00 0.00 0.00 44 1021.0
20260903103504 63 121 2.6 2.6 0.00 0.00 0.00 44 1021.0
20260903103003 63 121 2.6 2.6 0.00 0.00 0.00 44 1021.0
20260903102503 63 121 2.6 2.6 0.00 0.00 0.00 44 1021.3
20260903102003 63 279 1.7 1.7 0.00 0.00 0.00 47 1021.0
20260903100504 67 192 2.6 6.1 0.00 0.00 0.00 41 1021.0
20260903100004 67 192 2.6 6.1 0.00 0.00 0.00 41 1020.9
20260903095504 66 184 4.3 6.1 0.00 0.00 0.00 42 1021.0
20260903092503 62 97 3.5 3.5 0.00 0.00 0.00 40 1021.6
20260903092004 62 97 3.5 3.5 0.00 0.00 0.00 40 1021.4
20260903091504 62 97 3.5 3.5 0.00 0.00 0.00 40 1021.3
20260903085503 62 97 3.5 3.5 0.00 0.00 0.00 40 1021.4
20260903085003 62 97 3.5 3.5 0.00 0.00 0.00 40 1021.1
20260903084503 62 97 3.5 3.5 0.00 0.00 0.00 40 1021.0
20260903084004 62 97 3.5 3.5 0.00 0.00 0.00 40 1021.1
20260903083503 62 97 3.5 3.5 0.00 0.00 0.00 40 1021.3
20260903083003 62 97 3.5 3.5 0.00 0.00 0.00 40 1021.4
20260903082503 65 269 2.6 2.6 0.00 0.00 0.00 32 1021.4
20260903082003 65 269 2.6 2.6 0.00 0.00 0.00 32 1021.4
20260903081504 65 269 2.6 2.6 0.00 0.00 0.00 32 1021.3
20260903081003 65 269 2.6 2.6 0.00 0.00 0.00 32 1021.4
20260903080503 65 269 2.6 2.6 0.00 0.00 0.00 32 1021.6
20260903080004 65 269 2.6 2.6 0.00 0.00 0.00 32 1021.6
20260903075503 65 269 2.6 2.6 0.00 0.00 0.00 32 1021.5
20260903075003 65 269 2.6 2.6 0.00 0.00 0.00 32 1021.7
20260903074503 65 269 2.6 2.6 0.00 0.00 0.00 32 1021.5
20260903074004 65 269 2.6 2.6 0.00 0.00 0.00 32 1021.7
20260903073504 65 269 2.6 2.6 0.00 0.00 0.00 32 1021.6
20260903073004 65 269 2.6 2.6 0.00 0.00 0.00 32 1021.8
20260903071003 67 232 3.5 3.5 0.00 0.00 0.00 33 1021.7
20260903070503 67 232 3.5 3.5 0.00 0.00 0.00 33 1021.6
20260903070004 67 232 3.5 3.5 0.00 0.00 0.00 33 1021.7
20260903065504 67 232 3.5 3.5 0.00 0.00 0.00 33 1021.8
20260903065004 67 232 3.5 3.5 0.00 0.00 0.00 33 1021.8
20260903064504 67 232 3.5 3.5 0.00 0.00 0.00 33 1021.7
20260903064003 67 232 3.5 3.5 0.00 0.00 0.00 33 1021.7
20260903063503 67 232 3.5 3.5 0.00 0.00 0.00 33 1021.8
20260903063003 67 232 3.5 3.5 0.00 0.00 0.00 33 1021.7
20260903061004 69 182 6.1 7.0 0.00 0.00 0.00 32 1021.9
20260903060504 69 182 6.1 7.0 0.00 0.00 0.00 32 1021.8
20260903060004 69 182 6.1 7.0 0.00 0.00 0.00 32 1021.7
20260903055504 69 182 6.1 7.0 0.00 0.00 0.00 32 1021.8
20260903055004 69 182 6.1 7.0 0.00 0.00 0.00 32 1021.7
20260903054503 69 182 6.1 7.0 0.00 0.00 0.00 32 1021.5
20260903054003 69 215 7.8 7.8 0.00 0.00 0.00 33 1021.6
20260903053504 69 179 6.1 8.7 0.00 0.00 0.00 34 1021.5
20260903053003 69 179 6.1 8.7 0.00 0.00 0.00 34 1021.4
20260903052503 69 179 6.1 8.7 0.00 0.00 0.00 34 1021.4
20260903052003 69 179 6.1 8.7 0.00 0.00 0.00 34 1021.5